Simultaneous Nadir Overpasses (SNOs) Predictions

Prediction of SNOs between GOES-17 and METOP-A Satellite Orbit:

Table of predicted SNOs for the next 14.0 days since TLE Epoch: 1/29/2022
Index Date Time (GOES-17) GOES-17 Lat,Lon METOP-A Lat,Lon Distance(km) Time Diff (sec)
1 01/29/2022 04:59:12 0.02,-137.22 0.61,-134.38 322.15 80
2 01/29/2022 17:17:02 -0.02,-137.22 0.16,-138.03 92.30 80
3 02/01/2022 05:01:02 0.01,-137.20 0.56,-134.69 286.82 80
4 02/01/2022 17:18:54 -0.00,-137.21 0.23,-138.34 128.62 80
5 02/04/2022 05:02:49 -0.02,-137.19 0.47,-134.98 252.16 80
6 02/04/2022 17:20:45 0.02,-137.20 0.32,-138.65 165.33 80
7 02/07/2022 05:04:36 -0.01,-137.17 0.41,-135.27 216.95 80
8 02/07/2022 17:22:38 0.01,-137.18 0.38,-138.97 203.46 80
9 02/10/2022 05:09:01 -0.02,-137.14 0.31,-135.55 181.00 80
10 02/10/2022 17:21:50 0.02,-137.14 0.47,-139.28 243.15 80
